Voltar ao catálogo

STARLINK-1420

AtivoComunicaçõesVLEO
NORAD 45695·PAYLOAD·🇺🇸 United States

Lançado Jun 4, 2020 de Cape Canaveral Space Force Station

Loading…

Próximas Passagens (próximas 24 horas)

TLE

AtualizadoSource: CelesTrak SupGP

Época: Sep 14, 2026, 21:45 UTC

1 45695C 20035AQ  26257.90673611  .00105550  00000+0  41806-3 0  2578
2 45695  53.0364 167.0499 0005902 100.4956 335.3372 15.85943635    15

Acompanhe STARLINK-1420 em tempo real com AllMySat

Download on the App Store